Weather History for Vidsel, Sweden

Change the Weather History Date:

Wednesday, November 20, 2013

  Actual Average Record
Temperature  
Mean Temperature 10 °F -  
Max Temperature 19 °F - - ()
Min Temperature 1 °F - - ()
Degree Days  
Heating Degree Days 55    
Moisture  
Dew Point 6 °F    
Average Humidity 89    
Maximum Humidity 100    
Minimum Humidity 85    
Precipitation  
Precipitation 0.00 in - - ()
Sea Level Pressure  
Sea Level Pressure 29.65 in    
Wind  
Wind Speed 1 mph ()    
Max Wind Speed 4 mph    
Max Gust Speed -    
Visibility 6.2 miles    
Events      
T = Trace of Precipitation, MM = Missing Value Source: Averaged Metar Reports

Daily Weather History Graph

Daily Weather History Graph

Search for Another Location

Airport:

Trip Planner

Search our weather history database for the weather conditions in past years. The results will help you decide how hot, cold, wet, or windy it might be!

Date:

Astronomy

Nov. 20, 2013 Rise Set
Actual Time 8:44 AM CET 2:05 PM CET
Civil Twilight 7:32 AM CET 3:16 PM CET
Nautical Twilight 6:25 AM CET 4:23 PM CET
Astronomical Twilight 5:24 AM CET 5:24 PM CET
Moon 4:27 PM CET (11/20) 11:02 AM CET (11/20)
Length of Visible Light 7h 43m
Length of Day
5h 20m
Waning Gibbous, 93% of the Moon is Illuminated
Nov 20
Waning Gibbous
Nov 25
Last Quarter
Dec 3
New
Dec 9
First Quarter
Dec 17
Full

Hourly Weather History & Observations

Time (CET) Temp. Windchill Dew Point Humidity Pressure Visibility Wind Dir Wind Speed Gust Speed Precip Events Conditions
12:20 AM 6.8 °F - 3.2 °F 85% 29.39 in 6.2 mi Calm Calm - N/A   Mostly Cloudy
12:50 AM 6.8 °F - 3.2 °F 85% 29.36 in 6.2 mi Calm Calm - N/A   Overcast
1:20 AM 8.6 °F 2.0 °F 6.8 °F 92% 29.39 in 6.2 mi West 3.5 mph - N/A   Mostly Cloudy
1:50 AM 8.6 °F - 5.0 °F 85% 29.39 in 6.2 mi Variable 1.2 mph - N/A   Overcast
2:20 AM 6.8 °F - 5.0 °F 92% 29.39 in 6.2 mi NW 1.2 mph - N/A   Partly Cloudy
2:50 AM 6.8 °F - 5.0 °F 92% 29.42 in 6.2 mi NNW 2.3 mph - N/A   Unknown
3:20 AM 6.8 °F -0.1 °F 5.0 °F 92% 29.42 in 6.2 mi WNW 3.5 mph - N/A   Unknown
3:50 AM 5.0 °F - 3.2 °F 92% 29.42 in 6.2 mi Variable 1.2 mph - N/A   Unknown
4:20 AM 5.0 °F - 1.4 °F 85% 29.44 in 6.2 mi Variable 1.2 mph - N/A   Unknown
4:50 AM 3.2 °F - -0.4 °F 85% 29.44 in 6.2 mi Variable 1.2 mph - N/A   Unknown
5:20 AM 3.2 °F - -0.4 °F 85% 29.44 in 6.2 mi Variable 2.3 mph - N/A   Unknown
5:50 AM 3.2 °F - -0.4 °F 85% 29.47 in 6.2 mi Calm Calm - N/A   Unknown
6:20 AM 3.2 °F - -0.4 °F 85% 29.47 in 6.2 mi Variable 1.2 mph - N/A   Unknown
6:50 AM 3.2 °F - -0.4 °F 85% 29.50 in 6.2 mi Variable 1.2 mph - N/A   Unknown
7:20 AM 3.2 °F - -0.4 °F 85% 29.50 in 6.2 mi Calm Calm - N/A   Unknown
7:50 AM 3.2 °F - 1.4 °F 92% 29.53 in 6.2 mi Variable 2.3 mph - N/A   Unknown
8:20 AM 1.4 °F - -2.2 °F 85% 29.53 in 6.2 mi Variable 2.3 mph - N/A   Unknown
8:50 AM 3.2 °F - -0.4 °F 85% 29.56 in - WNW 2.3 mph - N/A   Clear
9:20 AM 3.2 °F - -0.4 °F 85% 29.56 in - Variable 1.2 mph - N/A   Clear
9:50 AM 10.4 °F - 6.8 °F 85% 29.59 in - Variable 2.3 mph - N/A   Clear
10:20 AM 12.2 °F 6.1 °F 10.4 °F 92% 29.62 in - NW 3.5 mph - N/A   Clear
10:50 AM 15.8 °F - 14.0 °F 93% 29.62 in - Variable 1.2 mph - N/A   Clear
11:20 AM 15.8 °F - 14.0 °F 93% 29.65 in - Variable 1.2 mph - N/A   Clear
11:50 AM 19.4 °F - 15.8 °F 86% 29.65 in - Calm Calm - N/A   Clear
12:20 PM 17.6 °F - 15.8 °F 93% 29.68 in - Variable 2.3 mph - N/A   Clear
12:50 PM 15.8 °F - 14.0 °F 93% 29.68 in - Variable 1.2 mph - N/A   Clear
1:20 PM 15.8 °F - 12.2 °F 86% 29.68 in - Variable 1.2 mph - N/A   Clear
1:50 PM 15.8 °F - 14.0 °F 93% 29.71 in - Variable 2.3 mph - N/A   Clear
2:20 PM 12.2 °F - 8.6 °F 85% 29.71 in - Calm Calm - N/A   Clear
2:50 PM 15.8 °F 10.2 °F 12.2 °F 86% 29.74 in - NW 3.5 mph - N/A   Clear
3:20 PM 14.0 °F - 14.0 °F 100% 29.74 in - Variable 1.2 mph - N/A   Clear
3:50 PM 10.4 °F - 8.6 °F 92% 29.77 in - Variable 1.2 mph - N/A   Clear
4:20 PM 8.6 °F - 6.8 °F 92% 29.77 in - Calm Calm - N/A   Clear
4:50 PM 10.4 °F - 8.6 °F 92% 29.80 in - Calm Calm - N/A   Clear
5:20 PM 8.6 °F - 5.0 °F 85% 29.80 in - Variable 2.3 mph - N/A   Clear
5:50 PM 10.4 °F - 8.6 °F 92% 29.80 in - Variable 2.3 mph - N/A   Clear
6:20 PM 6.8 °F - 5.0 °F 92% 29.83 in 6.2 mi Variable 1.2 mph - N/A   Unknown
6:50 PM 10.4 °F - 8.6 °F 92% 29.83 in 6.2 mi Variable 2.3 mph - N/A   Unknown
7:20 PM 6.8 °F - 5.0 °F 92% 29.83 in 6.2 mi Calm Calm - N/A   Unknown
7:50 PM 6.8 °F - 3.2 °F 85% 29.86 in 6.2 mi Calm Calm - N/A   Unknown
8:20 PM 10.4 °F - 8.6 °F 92% 29.86 in 6.2 mi West 1.2 mph - N/A   Unknown
8:50 PM 12.2 °F - 10.4 °F 92% 29.89 in 6.2 mi South 2.3 mph - N/A   Unknown
9:20 PM 10.4 °F - 8.6 °F 92% 29.89 in 6.2 mi Variable 2.3 mph - N/A   Unknown
9:50 PM 8.6 °F - 6.8 °F 92% 29.89 in 6.2 mi Variable 1.2 mph - N/A   Unknown
10:20 PM 8.6 °F - 5.0 °F 85% 29.92 in 6.2 mi Calm Calm - N/A   Mostly Cloudy
10:50 PM 8.6 °F - 5.0 °F 85% 29.92 in 6.2 mi Calm Calm - N/A   Partly Cloudy
11:20 PM 6.8 °F - 3.2 °F 85% 29.92 in 6.2 mi Variable 2.3 mph - N/A   Unknown
11:50 PM 8.6 °F - 5.0 °F 85% 29.92 in 6.2 mi Calm Calm - N/A   Unknown